Regional Weather Roundup
Issued by NWS

Home | Current Version | Previous Version | Text Only | Print | Product List | Glossary On
Versions: 1 2 3 4 5 6 7 8 9 10 11 12 13 14 15 16 17 18 19 20 21 22 23 24 25 26 27 28 29 30 31 32 33 34 35 36 37 38 39 40 41 42 43 44 45 46 47 48 49 50
000
ASUS44 KFWD 201915
RWRTX
NORTH TEXAS HOURLY WEATHER ROUNDUP
NATIONAL WEATHER SERVICE FORT WORTH TX
200 PM CDT WED AUG 20 2014

NOTE: "FAIR" INDICATES FEW OR NO CLOUDS BELOW 12,000 FEET WITH NO
SIGNIFICANT WEATHER AND/OR OBSTRUCTIONS TO VISIBILITY.

TXZ118-119-202000-
DALLAS/FORT WORTH METROPLEX

CITY           SKY/WX    TMP DP  RH WIND       PRES   REMARKS
DFW AIRPORT    MOSUNNY   94  68  42 S20G26    29.95F HX  98
DALLAS LOVE    MOSUNNY   95  68  41 S12       29.95F HX  99
FTW MEACHAM    SUNNY     97  66  36 S16G24    29.94F HX 100
DAL-EXECUTIVE  SUNNY     95  68  41 S10G20    29.95F HX  99
FTW-ALLIANCE   MOSUNNY   96  67  38 S13G23    29.93F HX 100
FTW-NAS-JRB    MOSUNNY   98  63  31 S20       29.98F HX 100
FTW-SPINKS     MOSUNNY   93  66  40 S14       29.97F HX  96
ARLINGTON      SUNNY     93  66  40 S12G23    29.95F HX  96
GRAND PRAIRIE  SUNNY     93  64  38 S12G21    29.97F HX  95
MESQUITE       MOSUNNY   93  66  40 S10G17    29.96F HX  96
LANCASTER      SUNNY     94  65  38 S12G20    29.97F HX  96
$$

TXZ091>094-102>105-117-120-121-131>134-202000-
NORTH CENTRAL TEXAS

CITY           SKY/WX    TMP DP  RH WIND       PRES   REMARKS
SHRMAN/DENISON SUNNY     93  67  41 S15       29.97F HX  96
GAINESVILLE    SUNNY     91  70  51 SE13      29.97F HX  96
BOWIE          SUNNY     94  63  35 SE15G23   29.94F HX  95
BRIDGEPORT     SUNNY     94  58  29 S13G23    29.95F HX  93
DECATUR        SUNNY     92  63  38 S15       29.96S HX  93
DENTON         SUNNY     94  68  42 S16G23    29.94F HX  98
MCKINNEY       SUNNY     92  70  48 S16       29.96F HX  97
GREENVILLE     MOSUNNY   91  68  46 S9G20     29.98F HX  95
ROCKWALL       SUNNY     93  71  48 S14G22    29.96F HX  99
TERRELL        MOSUNNY   95  69  42 S13G22    29.97F HX 100
WAXAHACHIE     SUNNY     93  64  38 S17       29.97F HX  95
CLEBURNE       SUNNY     93  68  43 S14       29.97F HX  97
GRANBURY       SUNNY     98  61  29 SE16      29.95F HX  98
$$

TXZ083>090-098>101-113>116-127>130-139>142-154-155-202000-
WESTERN NORTH TEXAS

CITY           SKY/WX    TMP DP  RH WIND       PRES   REMARKS
WICHITA FALLS  SUNNY     96  58  27 S22G28    29.90S HX  95
WF-KICKAPOO    MOSUNNY   98  55  23 S15G23    29.91F HX  96
VERNON         SUNNY     99  60  27 SW24      29.89F HX  99
ABILENE        SUNNY     93  65  39 S21G28    29.95F HX  95
ABILENE-DYESS  MOSUNNY   92  68  45 S22G35    29.93F HX  95
BRECKENRIDGE   SUNNY     97  55  24 SW21G28   29.93F HAZE    HX  95
GRAHAM         SUNNY     97  55  24 S13G20    29.91F HX  95
MINERAL WELLS  SUNNY     94  64  37 S12G21    29.93F HX  95
STEPHENVILLE   SUNNY     93  61  34 SE16G22   29.99F HX  93
COMANCHE       SUNNY     94  58  30 S14G22    29.97F HX  93
BROWNWOOD      SUNNY     93  59  31 S16G24    29.97F HX  92
COLEMAN        SUNNY     89  63  42 S20G28    29.97F
BRADY          SUNNY     90  63  40 SE14      29.98F HX  90
$$

TXZ143>147-156>162-174-175-202000-
CENTRAL TEXAS

CITY           SKY/WX    TMP DP  RH WIND       PRES   REMARKS
WACO           SUNNY     96  68  39 S14       29.96F HX 101
WACO-TSTC      MOSUNNY   97  66  36 SW14      29.96F HX 100
WACO-MCGREGOR  MOSUNNY   97  66  36 S18G25    29.96F HX 100
HILLSBORO      MOSUNNY   95  64  36 S16G25    29.96F HX  97
CORSICANA      SUNNY     96  68  39 S14       29.98F HX 101
MEXIA          PTSUNNY   93  71  48 SE13G18   29.97F HX  99
HEARNE           N/A     97  70  41 S9G16     29.96F HX 103
CAMERON        MOSUNNY   97  69  40 S16G23    29.95F HX 103
TEMPLE         MOSUNNY   97  66  36 S18G26    29.95F HX 100
KILLEEN        MOSUNNY   93  66  40 SE17G23   29.96F HX  96
KILLEEN-SKYLRK MOSUNNY   95  64  36 S15G26    29.96F HX  97
FORT HOOD      MOSUNNY   97  66  36 SE13G22   29.96F HX 100
GATESVILLE     SUNNY     93  64  38 S13G21    29.98F HX  95
HAMILTON       SUNNY     95  60  31 SW14G28   29.99S HX  95
LAMPASAS       MOSUNNY   95  67  40 S12G21    29.97F HX  99
$$

TXZ095>097-106>112-122>126-135>138-148>153-164>167-202000-
EAST TEXAS

CITY           SKY/WX    TMP DP  RH WIND       PRES   REMARKS
PARIS          SUNNY     91  70  49 S12       30.00F HX  97
SULPHUR SPRNGS SUNNY     94  67  41 S12G17    30.01S HX  97
CLARKSVILLE    SUNNY     92  68  45 S6        30.00F HX  96
MOUNT PLEASANT SUNNY     93  67  42 SW6       30.01F HX  96
GILMER         SUNNY     93  70  46 S13       30.01F HX  99
MINEOLA        CLOUDY    91  70  49 SW8G16    30.00F HX  97
TYLER          MOSUNNY   94  70  45 S14G21    30.00F HX 100
LONGVIEW       MOSUNNY   93  71  48 S16G22    30.00F HX 100
MARSHALL       SUNNY     94  72  48 S9        30.03F HX 101
ATHENS         MOSUNNY   90  72  55 S9        29.98F HX  96
PALESTINE      MOSUNNY   92  73  53 S10       30.00F HX 100
JACKSONVILLE   MOSUNNY   90  72  55 S6        30.04F HX  97
HENDERSON      MOSUNNY   92  71  49 S9G17     30.02F HX  98
NACOGDOCHES    MOSUNNY   91  73  55 S8        30.01F HX 100
LUFKIN         MOSUNNY   93  74  53 SE7       30.01F HX 103
$$

SUPPLEMENTAL OBSERVATIONS (CENTRAL)

CITY           SKY/WX    TMP DP  RH WIND       PRES   REMARKS
LAKE TEXOMA      N/A     91  68  46 S9          N/A  HX  95
CADDO GRASSLND   N/A     93  70  46 S10         N/A  HX  99
PAT MAYSE LAKE   N/A     90  68  48 SE13        N/A  HX  93
GREENVILLE       N/A     93  70  46 S12         N/A  HX  99
CEDAR HILL       N/A     95  66  38 S10         N/A  HX  98
ATHENS           N/A     93  70  46 S13         N/A  HX  99
PALESTINE        N/A     93  73  52 S6          N/A  HX 102
LAKE LIMESTONE   N/A     95  73  49 S8G22       N/A  HX 105
MCGREGOR         N/A     97  64  34 S16G22      N/A  HX  99
TEMPLE           N/A     97  66  36 S15G23      N/A  HX 100
$$

SUPPLEMENTAL OBSERVATIONS (WEST)

CITY           SKY/WX    TMP DP  RH WIND       PRES   REMARKS
POSSUM KINGDOM   N/A     99  55  23 S15G22      N/A  HX  97
LBJ GRASSLAND    N/A     93  64  38 S13         N/A  HX  95
GRANBURY         N/A     97  61  30 S15G23      N/A  HX  97
COMANCHE         N/A     93  63  36 S14G22      N/A  HX  94
HAMBY            N/A     93  64  38 S22G30      N/A  HX  95
IVIE RESERVOIR   N/A     93  63  36 S17G23      N/A  HX  94
COLORADO BEND    N/A     93  61  33 S10G20      N/A  HX  93
$$

SUPPLEMENTAL OBSERVATIONS (EAST)

CITY           SKY/WX    TMP DP  RH WIND       PRES   REMARKS
CLARKSVILLE      N/A     93  72  49 S6G14       N/A  HX 100
TEXARKANA        N/A     93  72  49 SW2         N/A  HX 100
CADDO LAKE       N/A     93  66  40 SW5         N/A  HX  96
GILMER           N/A     93  66  40 S8          N/A  HX  96
HENDERSON        N/A     91  72  52 S10         N/A  HX  98
LUFKIN           N/A     91  81  70 MISG        N/A  HX 110
N SABINE NF      N/A     91  77  62 MISG        N/A  HX 105
S SABINE NF      N/A     93  73  52 E6          N/A  HX 102
$$

SUPPLEMENTAL OBSERVATIONS ARE A COLLECTION OF AUTOMATED INSTRUMENTS
THAT ARE MAINTAINED BY A VARIETY OF FEDERAL AND STATE AGENCIES.
CERTAIN ELEMENTS...SUCH AS HUMIDITY VALUES AND SUSTAINED WIND
SPEEDS...MAY BE APPROXIMATED.



USA.gov is the U.S. government's official web portal to all federal, state and local government web resources and services.